sat.trackr.live / text

‹ back to catalog

FLOCK 4BE-19

NORAD 60563 · 2024-149CZ

PAYLOAD ACTIVE UNKNOWN

§ Identity

Operator
Country
US
Launch date
2024-08-16
Launch site
AFWTR
Launch vehicle
Mass (kg)
RCS (m²)

Purposes: earth_obs

External: N2YO · Heavens-Above · Gunter

§ Orbital elements

Epoch: 2026-09-19T22:06:32.767776Z

Period
92.97 min
Inclination
97.3695°
Eccentricity
0.0003677
Mean motion
15.48919199 rev/d
Perigee alt
417.4 km
Apogee alt
422.4 km
Semi-major
6,798.0 km
B*
7.0343e-4
RAAN
350.0068°
Arg perigee
307.8311°
Mean anomaly
52.2606°
Rev number
11,706

§ Raw data

FLOCK 4BE-191 60563U 24149CZ  26262.92121259  .00037999  00000+0  70343-3 0  99952 60563  97.3695 350.0068 0003677 307.8311  52.2606 15.48919199117061

JSON: /api/v1/satellites/60563 · /tle

For live sub-satellite position, see the globe view (requires WebGL).

§ Visibility from observer

Set your observer location to see the next 7 days of passes ≥ 10°. The values pass through the URL so the page stays shareable.

No JS? Fill the form by hand. The geolocation button needs JavaScript.